When you browse on this site, cookies collect data to enhance your experience and personalize the content and advertising you see.
Visit our Privacy Policy to learn more. By continuing to use the site, you agree to this use of cookies and data.
  • In Schweiz
  • Länderverzeichnis
  • Für 7 Tage
  • Wassertemperatur
  • Wetterkarte
  • Widgets
  • user-avatar
    Anmelden

    Stündliche Wetter Newcastle

    Heute, 30 Mai, Samstag

    Zeit Temperatur Niederschläge Wind Luftdruck Luftfeuchtigkeit
    00:00 +14°C° 0 mm 2 m/S 769 mmHg 90%
    01:00 +14°C° 0 mm 2 m/S 769 mmHg 90%
    02:00 +14°C° 0 mm 2 m/S 769 mmHg 90%
    03:00 +14°C° 0 mm 1 m/S 769 mmHg 91%
    04:00 +14°C° 0 mm 1 m/S 769 mmHg 93%
    05:00 +13°C° 0 mm 1 m/S 769 mmHg 94%
    06:00 +13°C° 0 mm 1 m/S 769 mmHg 94%
    07:00 +12°C° 0 mm 1 m/S 770 mmHg 95%
    08:00 +14°C° 0 mm 1 m/S 770 mmHg 88%
    09:00 +16°C° 0 mm 1 m/S 769 mmHg 82%
    10:00 +19°C° 0 mm 1 m/S 769 mmHg 76%
    11:00 +20°C° 0 mm 1 m/S 768 mmHg 71%
    12:00 +21°C° 0 mm 1 m/S 768 mmHg 66%
    13:00 +21°C° 0 mm 1 m/S 767 mmHg 61%
    14:00 +20°C° 0 mm 2 m/S 767 mmHg 65%
    15:00 +19°C° 0 mm 2 m/S 767 mmHg 69%
    16:00 +19°C° 0 mm 2 m/S 767 mmHg 73%
    17:00 +17°C° 0 mm 2 m/S 767 mmHg 80%
    18:00 +16°C° 0 mm 2 m/S 767 mmHg 87%
    19:00 +14°C° 0 mm 2 m/S 767 mmHg 94%
    20:00 +13°C° 0 mm 3 m/S 767 mmHg 94%
    21:00 +13°C° 0 mm 3 m/S 767 mmHg 95%
    22:00 +13°C° 0 mm 3 m/S 766 mmHg 95%
    23:00 +12°C° 0 mm 3 m/S 766 mmHg 96%

    Morgen, 31 Mai, Sonntag

    Zeit Temperatur Niederschläge Wind Luftdruck Luftfeuchtigkeit
    00:00 +12°C° 0 mm 3 m/S 766 mmHg 96%
    01:00 +12°C° 0 mm 4 m/S 765 mmHg 96%
    02:00 +11°C° 0 mm 3 m/S 765 mmHg 96%
    03:00 +11°C° 0 mm 3 m/S 765 mmHg 96%
    04:00 +12°C° 0 mm 2 m/S 765 mmHg 97%
    05:00 +12°C° 0 mm 2 m/S 765 mmHg 95%
    06:00 +13°C° 0 mm 2 m/S 765 mmHg 93%
    07:00 +13°C° 0 mm 2 m/S 765 mmHg 91%
    08:00 +14°C° 0 mm 2 m/S 764 mmHg 85%
    09:00 +16°C° 0 mm 3 m/S 764 mmHg 79%
    10:00 +17°C° 0 mm 3 m/S 764 mmHg 73%
    11:00 +19°C° 0 mm 3 m/S 763 mmHg 67%
    12:00 +20°C° 0 mm 3 m/S 763 mmHg 60%
    13:00 +22°C° 0 mm 3 m/S 762 mmHg 53%
    14:00 +21°C° 0 mm 3 m/S 762 mmHg 56%
    15:00 +21°C° 0 mm 3 m/S 762 mmHg 58%
    16:00 +21°C° 0 mm 2 m/S 761 mmHg 61%
    17:00 +19°C° 0 mm 3 m/S 762 mmHg 66%
    18:00 +17°C° 0 mm 3 m/S 762 mmHg 71%
    19:00 +16°C° 0 mm 3 m/S 762 mmHg 76%
    20:00 +14°C° 0 mm 3 m/S 762 mmHg 78%
    21:00 +13°C° 0 mm 3 m/S 762 mmHg 80%
    22:00 +13°C° 0 mm 3 m/S 762 mmHg 82%
    23:00 +12°C° 0 mm 3 m/S 761 mmHg 83%

    übermorgen, 1 Juni, Montag

    Zeit Temperatur Niederschläge Wind Luftdruck Luftfeuchtigkeit
    00:00 +12°C° 0 mm 3 m/S 761 mmHg 84%
    01:00 +12°C° 0 mm 3 m/S 760 mmHg 85%
    02:00 +12°C° 0 mm 3 m/S 760 mmHg 84%
    03:00 +12°C° 0 mm 3 m/S 759 mmHg 83%
    04:00 +12°C° 0 mm 3 m/S 758 mmHg 81%
    05:00 +12°C° 0 mm 4 m/S 758 mmHg 80%
    06:00 +12°C° 0 mm 4 m/S 758 mmHg 79%
    07:00 +13°C° 0 mm 4 m/S 758 mmHg 78%
    08:00 +15°C° 0 mm 5 m/S 758 mmHg 69%
    09:00 +17°C° 0 mm 5 m/S 758 mmHg 60%
    10:00 +21°C° 0 mm 6 m/S 758 mmHg 51%
    11:00 +21°C° 0 mm 6 m/S 757 mmHg 49%
    12:00 +22°C° 0 mm 6 m/S 756 mmHg 47%
    13:00 +23°C° 0 mm 6 m/S 755 mmHg 45%
    14:00 +22°C° 0 mm 6 m/S 755 mmHg 47%
    15:00 +20°C° 0 mm 5 m/S 755 mmHg 50%
    16:00 +19°C° 0 mm 5 m/S 755 mmHg 53%
    17:00 +17°C° 0 mm 5 m/S 756 mmHg 55%
    18:00 +16°C° 0 mm 5 m/S 757 mmHg 56%
    19:00 +14°C° 0 mm 6 m/S 757 mmHg 58%
    20:00 +13°C° 0 mm 5 m/S 758 mmHg 61%
    21:00 +12°C° 0 mm 5 m/S 758 mmHg 65%
    22:00 +10°C° 0 mm 5 m/S 759 mmHg 68%
    23:00 +9°C° 0 mm 5 m/S 759 mmHg 70%

    2 Juni, Dienstag

    Zeit Temperatur Niederschläge Wind Luftdruck Luftfeuchtigkeit
    00:00 +8°C° 0 mm 5 m/S 759 mmHg 71%
    01:00 +8°C° 0 mm 5 m/S 759 mmHg 73%
    02:00 +7°C° 0 mm 5 m/S 759 mmHg 71%
    03:00 +7°C° 0 mm 6 m/S 759 mmHg 70%
    04:00 +7°C° 0 mm 6 m/S 759 mmHg 68%
    05:00 +8°C° 0 mm 6 m/S 759 mmHg 67%
    06:00 +8°C° 0 mm 6 m/S 760 mmHg 65%
    07:00 +9°C° 0 mm 5 m/S 760 mmHg 64%
    08:00 +9°C° 0.8 mm 5 m/S 760 mmHg 70%
    09:00 +10°C° 0.8 mm 4 m/S 760 mmHg 77%
    10:00 +11°C° 0.8 mm 4 m/S 761 mmHg 83%
    11:00 +12°C° 0.8 mm 5 m/S 760 mmHg 77%
    12:00 +12°C° 0.8 mm 7 m/S 760 mmHg 72%
    13:00 +15°C° 0.8 mm 8 m/S 760 mmHg 66%
    14:00 +15°C° 0.1 mm 7 m/S 760 mmHg 63%
    15:00 +16°C° 0.1 mm 6 m/S 761 mmHg 60%
    16:00 +16°C° 0.1 mm 5 m/S 761 mmHg 57%
    17:00 +15°C° 0 mm 5 m/S 762 mmHg 58%
    18:00 +14°C° 0 mm 6 m/S 763 mmHg 60%
    19:00 +13°C° 0 mm 6 m/S 764 mmHg 62%
    20:00 +10°C° 0 mm 5 m/S 764 mmHg 65%
    21:00 +9°C° 0 mm 5 m/S 765 mmHg 69%
    22:00 +8°C° 0 mm 5 m/S 765 mmHg 73%
    23:00 +8°C° 0 mm 4 m/S 765 mmHg 75%

    3 Juni, Mittwoch

    Zeit Temperatur Niederschläge Wind Luftdruck Luftfeuchtigkeit
    00:00 +8°C° 0 mm 4 m/S 765 mmHg 76%
    01:00 +7°C° 0 mm 4 m/S 765 mmHg 78%
    02:00 +7°C° 0 mm 4 m/S 765 mmHg 79%
    03:00 +7°C° 0 mm 4 m/S 766 mmHg 81%
    04:00 +7°C° 0 mm 3 m/S 766 mmHg 82%
    05:00 +7°C° 0 mm 3 m/S 766 mmHg 82%
    06:00 +7°C° 0 mm 3 m/S 767 mmHg 83%
    07:00 +7°C° 0 mm 3 m/S 768 mmHg 83%
    08:00 +9°C° 0 mm 3 m/S 768 mmHg 76%
    09:00 +11°C° 0 mm 3 m/S 768 mmHg 69%
    10:00 +13°C° 0 mm 3 m/S 768 mmHg 61%
    11:00 +14°C° 0 mm 3 m/S 768 mmHg 57%
    12:00 +17°C° 0 mm 2 m/S 768 mmHg 53%
    13:00 +18°C° 0 mm 2 m/S 767 mmHg 49%
    14:00 +18°C° 0 mm 2 m/S 767 mmHg 54%
    15:00 +17°C° 0 mm 2 m/S 767 mmHg 59%
    16:00 +17°C° 0 mm 2 m/S 768 mmHg 65%
    17:00 +15°C° 0 mm 2 m/S 768 mmHg 71%
    18:00 +13°C° 0 mm 1 m/S 769 mmHg 78%
    19:00 +11°C° 0 mm 1 m/S 770 mmHg 85%
    20:00 +10°C° 0 mm 2 m/S 770 mmHg 85%
    21:00 +10°C° 0 mm 2 m/S 770 mmHg 86%
    22:00 +10°C° 0 mm 2 m/S 771 mmHg 86%
    23:00 +10°C° 0 mm 2 m/S 771 mmHg 86%

    4 Juni, Donnerstag

    Zeit Temperatur Niederschläge Wind Luftdruck Luftfeuchtigkeit
    00:00 +10°C° 0 mm 2 m/S 771 mmHg 86%
    01:00 +10°C° 0 mm 2 m/S 771 mmHg 87%
    02:00 +10°C° 0 mm 2 m/S 771 mmHg 85%
    03:00 +10°C° 0 mm 2 m/S 771 mmHg 83%
    04:00 +12°C° 0 mm 2 m/S 771 mmHg 81%
    05:00 +12°C° 0.1 mm 2 m/S 771 mmHg 82%
    06:00 +12°C° 0.1 mm 2 m/S 772 mmHg 82%
    07:00 +12°C° 0.1 mm 2 m/S 772 mmHg 82%
    08:00 +13°C° 0 mm 2 m/S 772 mmHg 78%
    09:00 +15°C° 0 mm 2 m/S 772 mmHg 73%
    10:00 +16°C° 0 mm 2 m/S 772 mmHg 68%
    11:00 +17°C° 0 mm 2 m/S 772 mmHg 67%
    12:00 +17°C° 0 mm 2 m/S 771 mmHg 66%
    13:00 +18°C° 0 mm 3 m/S 771 mmHg 66%
    14:00 +17°C° 0 mm 2 m/S 771 mmHg 67%
    15:00 +17°C° 0 mm 2 m/S 771 mmHg 68%
    16:00 +17°C° 0 mm 2 m/S 770 mmHg 70%
    17:00 +15°C° 0 mm 1 m/S 771 mmHg 75%
    18:00 +13°C° 0 mm 1 m/S 771 mmHg 80%
    19:00 +11°C° 0 mm 0 m/S 772 mmHg 85%
    20:00 +10°C° 0 mm 0 m/S 772 mmHg 87%
    21:00 +10°C° 0 mm 0 m/S 772 mmHg 88%
    22:00 +11°C° 0 mm 1 m/S 772 mmHg 90%
    23:00 +10°C° 0 mm 1 m/S 772 mmHg 90%
    Mehr zeigen